Regional Weather Roundup
Issued by NWS Memphis, TN

Home | Current Version | Previous Version | Text Only | Print | Product List | Glossary On
Versions: 1 2 3 4 5 6 7 8 9 10 11 12 13 14 15 16 17 18 19 20 21 22 23 24 25 26 27 28 29 30 31 32 33 34 35 36 37 38 39 40 41 42 43 44 45 46 47 48 49 50
000
ASUS44 KMEG 191710
RWRMEG
MEMPHIS CWA HOURLY WEATHER ROUNDUP
NATIONAL WEATHER SERVICE MEMPHIS TN
1200 PM CDT THU APR 19 2018

...WEST TENNESSEE...

CITY           SKY/WX    TMP DP  RH WIND       PRES   REMARKS
MEMPHIS INTL   PTSUNNY   53  34  48 N13G20    30.33R
NWS MEMPHIS      N/A     50 N/A N/A MISG        N/A
JACKSON        PTSUNNY   50  29  44 N13G20    30.33R
COVINGTON      PTSUNNY   48  30  49 N10G20    30.35R
SOMERVILLE     PTSUNNY   48  30  49 N12G20    30.32R
BOLIVAR        PTSUNNY   50  30  46 NW10      30.32R
LEXINGTON      PTSUNNY   50  27  40 NW12G21   30.31R
SELMER         PTSUNNY   48  27  43 N10G20    30.29S
DYERSBURG      PTSUNNY   50  30  46 N10G16    30.36R
UNION CITY     PTSUNNY   46  28  49 N13G23    30.34S
PARIS          PTSUNNY   46  28  49 N7G13     30.33R
HUNTINGDON     PTSUNNY   46  27  46 N9G15     30.32R


...EASTERN ARKANSAS...

CITY           SKY/WX    TMP DP  RH WIND       PRES   REMARKS
JONESBORO      FAIR      50  32  50 NW13G22   30.37R
WEST MEMPHIS   PTSUNNY   53  34  48 N10       30.34R
BATESVILLE     SUNNY     52  29  41 N7        30.37S
NEWPORT        FAIR      50  27  40 N15       30.38R
WALNUT RIDGE   FAIR      50  27  40 N15       30.39R
BLYTHEVILLE    FAIR      53  30  41 N21G29    30.37R
SEARCY         FAIR      53  30  41 NW13G20   30.37S
STUTTGART      FAIR      53  31  42 N14       30.37S
PINE BLUFF     FAIR      53  30  41 N8        30.36F
MONTICELLO     FAIR      56  30  37 MISG      30.34S


...NORTH MISSISSIPPI...

CITY           SKY/WX    TMP DP  RH WIND       PRES   REMARKS
TUPELO         FAIR      55  31  39 NW15      30.28R
OXFORD         FAIR      55  32  41 VRB7G25   30.31R
BATESVILLE       N/A    N/A N/A N/A MISG        N/A
OLIVE BRANCH   PTSUNNY   48  34  57 N13G21    30.32R
TUNICA           N/A     52  32  46 N13       30.35S
CLARKSDALE     SUNNY     54  32  43 N14G20    30.35R
CORINTH        CLOUDY    52  30  43 N15G22    30.30R
GREENWOOD      FAIR      58  33  39 N10G22    30.31R
COLUMBUS       FAIR      57  37  47 N14G20    30.25S
STARKVILLE     FAIR      55  34  44 NW8G16    30.27S
GOLDEN TRIANGL FAIR      57  36  45 N14G23    30.27R


...SOUTHEAST MISSOURI...

CITY           SKY/WX    TMP DP  RH WIND       PRES   REMARKS
KENNETT        FAIR      50  28  43 N16G25    30.36R
MALDEN         FAIR      48  27  43 N13       30.38S
WEST PLAINS    MOSUNNY   47  27  45 N8G21     30.39R
POPLAR BLUFF   PTSUNNY   48  30  49 N10G22    30.38R
CAPE GIRARDEAU CLOUDY    47  29  49 N16G24    30.38R


...NORTHWEST ALABAMA...

CITY           SKY/WX    TMP DP  RH WIND       PRES   REMARKS
MUSCLE SHOALS  PTSUNNY   52  30  43 N13       30.28R


...MIDDLE TENNESSEE...

CITY           SKY/WX    TMP DP  RH WIND       PRES   REMARKS
NASHVILLE      PTSUNNY   48  28  46 NW13G20   30.30R
CLARKSVILLE    CLOUDY    46  28  49 N9G21     30.33R
COLUMBIA       MOSUNNY   48  27  43 N10G20    30.28R
LEWISBURG      PTSUNNY   46  28  49 N14       30.27S


...WESTERN KENTUCKY...

CITY           SKY/WX    TMP DP  RH WIND       PRES   REMARKS
PADUCAH        PTSUNNY   46  28  49 N10G24    30.35R
FORT CAMPBELL  CLOUDY    44  27  51 N9        30.32R


...CENTRAL ARKANSAS...

CITY           SKY/WX    TMP DP  RH WIND       PRES   REMARKS
LITTLE ROCK    MOSUNNY   55  30  38 NW9G22    30.36F


SKY/WX REPORTED AS FAIR MEANS FEW OR NO CLOUDS BELOW
12 THOUSAND FEET.





USA.gov is the U.S. government's official web portal to all federal, state and local government web resources and services.